Location: São Paulo
(23.5507°S, 46.6334°W)
Time: 08:05:01
(UTC-03:00)

Vanguard 2 Rocket - Pass Details

Date: 19 February 2026
Orbit: 553 x 3286 km, 32.9° (Epoch: 7 March)

Event Time Altitude Azimuth Distance (km) Brightness Sun altitude
Exits shadow 02:24:41 37° 151° (SSE) 1,830 8.6 -43.8°
Drops below altitude 10° 02:32:16 10° 110° (ESE) 4,072 10.7 -42.5°
Sets 02:36:54 0° 103° (ESE) 5,559 11.6 -41.8°
